Location: *
(60.1759°S, 155.0663°W)
Time: 17:42:10
(UTC+00:00)

Terra - Pass Details

Date: 17 September 2019
Orbit: 701 x 703 km, 98.2° (Epoch: 23 October)

Event Time Altitude Azimuth Distance (km) Brightness Sun altitude
Rises 12:06:26 0° 164° (SSE) 3,142 6.3 -28.3°
Reaches altitude 10° 12:09:37 10° 186° (S) 2,218 5.0 -28.0°
Maximum altitude 12:12:17 15° 219° (SW) 1,893 4.2 -27.9°
Enters shadow 12:13:14 14° 232° (SW) 1,934 4.1 -27.8°
